Regional Weather Roundup
Issued by NWS

Home | Current Version | Previous Version | Graphics & Text | Print | Product List | Glossary On
Versions: 1 2 3 4 5 6 7 8 9 10 11 12 13 14 15 16 17 18 19 20 21 22 23 24 25 26 27 28 29 30 31 32 33 34 35 36 37 38 39 40 41 42 43 44 45 46 47 48 49 50
000
ASUS43 KMKX 222011
RWRWI

WISCONSIN REGIONAL WEATHER ROUNDUP
NATIONAL WEATHER SERVICE MILWAUKEE/SULLIVAN WI
300 PM CDT MON MAY 22 2017

NOTE: "FAIR" INDICATES FEW OR NO CLOUDS BELOW 12,000 FEET WITH NO
SIGNIFICANT WEATHER AND/OR OBSTRUCTIONS TO VISIBILITY.

WIZ001-002-006>008-014>016-023>028-222100-
NORTHWEST WISCONSIN

CITY           SKY/WX    TMP DP  RH WIND       PRES   REMARKS
SUPERIOR ARPT  NOT AVBL
ASHLAND        CLOUDY    53  47  79 SW13      29.79S
HAYWARD        CLOUDY    55  41  59 W8G20     29.81R
SIREN          CLOUDY    58  41  53 W9        29.82S
CUMBERLAND     CLOUDY    55  43  62 W14       29.82F
RICE LAKE      CLOUDY    58  43  57 W12G17    29.84S
CHETEK         CLOUDY    60  43  53 W9G18     29.82S
LADYSMITH      PTSUNNY   58  43  58 W16       29.83S
EAU CLAIRE     PTSUNNY   64  43  46 W10G21    29.81S
MENOMONIE      PTSUNNY   64  44  47 W14       29.82S
NEW RICHMOND   MOSUNNY   61  40  46 W7        29.82F
OSCEOLA        MOSUNNY   60  43  54 W8        29.84F
$$

WIZ003>005-009-010-017-018-222100-
NORTH CENTRAL WISCONSIN

CITY           SKY/WX    TMP DP  RH WIND       PRES   REMARKS
MANITOWISH WTR CLOUDY    52  41  67 W15G23    29.79R
ARBOR VITAE    LGT RAIN  52  47  82 W7        29.79R
WOODRUFF       LGT RAIN  52  47  82 W7        29.79R
RHINELANDER    CLOUDY    55  43  63 SW12G20   29.80R
EAGLE RIVER    LGT RAIN  51  42  73 W8        29.79R
LAND O LAKES   CLOUDY    54  40  60 SW10G16   29.80R
PHILLIPS       CLOUDY    54  41  62 W8G21     29.80R
TOMAHAWK       CLOUDY    56  41  56 W13G18    29.81R
MEDFORD        CLOUDY    58  43  56 SW12G18   29.80S
MERRILL        CLOUDY    60  42  52 W15G23    29.80S
$$

WIZ029-030-035-036-043>047-222100-
CENTRAL WISCONSIN

CITY           SKY/WX    TMP DP  RH WIND       PRES   REMARKS
WAUSAU         CLOUDY    62  42  47 W18G28    29.79F
MOSINEE        PTSUNNY   64  45  48 SW15G24   29.82S
MARSHFIELD     MOSUNNY   64  43  46 W12       29.80S
STEVENS POINT  PTSUNNY   64  41  42 SW15G24   29.81S
WAUPACA        MOSUNNY   71  40  32 SW15G23   29.81S
WAUTOMA        MOSUNNY   69  45  41 SW10G22   29.82F
WISC RAPIDS    PTSUNNY   70  45  40 W14G24    29.82S
CAMP DOUGLAS   MOSUNNY   68  46  45 SW13G22   29.82F
$$

WIZ011>013-019>022-031-037>040-048>050-222100-
NORTHEAST WISCONSIN

CITY           SKY/WX    TMP DP  RH WIND       PRES   REMARKS
ANTIGO         CLOUDY    58  44  60 W17G24    29.80F
SHAWANO        CLOUDY    67  44  43 W7        29.80F
OCONTO         CLOUDY    64  42  44 SW13G21   29.81S
STURGEON BAY   PTSUNNY   64  44  48 SW16G25   29.83F
GREEN BAY      MOSUNNY   67  48  50 SW12G21   29.81F
MANITOWOC      MOSUNNY   68  46  45 VRB7G18   29.84F
APPLETON       PTSUNNY   66  39  37 SW14G23   29.81
CLINTONVILLE   PTSUNNY   66  41  39 W12       29.81S
OSHKOSH        SUNNY     67  48  50 SW14G22   29.83S
$$

WIZ032>034-041-042-053>061-222100-
SOUTHWEST WISCONSIN

CITY           SKY/WX    TMP DP  RH WIND       PRES   REMARKS
LA CROSSE      MOSUNNY   73  47  39 W9        29.81F
SPARTA         SUNNY     68  46  45 W6G17     29.83F
VIROQUA        MOSUNNY   66  49  54 N13       29.85F
BOSCOBEL       PTSUNNY   68  53  58 VRB6      29.87F
PRAIRIE DU CHI MOSUNNY   67  50  54 SW7       29.86F
PLATTEVILLE    CLOUDY    65  55  69 S13       29.88F
$$

WIZ056-057-062-063-064-067-068-222100-
SOUTH CENTRAL WISCONSIN

CITY           SKY/WX    TMP DP  RH WIND       PRES   REMARKS
REEDSBURG      PTSUNNY   66  52  60 SW16      29.86S
BARABOO/DELLS  PTSUNNY   65  51  58 SW16      29.86F
LONE ROCK      SUNNY     66  52  60 SW10      29.86F
MINERAL POINT  PTSUNNY   64  55  72 S13G20    29.87F
MADISON        LGT RAIN  58  50  75 S6        29.89F
MIDDLETON      CLOUDY    60  50  69 SW9       29.89F
WATERTOWN      CLOUDY    57  53  85 SW8       29.90S
MONROE         PTSUNNY   63  50  63 S7        29.89F
JANESVILLE     CLOUDY    64  48  55 W8        29.90F
$$

WIZ051-052-058>065-066-070>072-222100-
SOUTHEAST WISCONSIN

CITY           SKY/WX    TMP DP  RH WIND       PRES   REMARKS
MILWAUKEE      CLOUDY    65  48  54 SW15G22   29.91F
WAUKESHA       NOT AVBL
MILWAUKEE/TIMM PTSUNNY   61  45  55 SW12G20   29.91F
RACINE         CLOUDY    66  45  46 W7G16     29.92F
KENOSHA        CLOUDY    67  47  48 W12G24    29.91F
FOND DU LAC    SUNNY     67  47  48 SW12G28   29.85S
SHEBOYGAN      MOSUNNY   68  50  52 SW23G31   29.85S
WEST BEND      LGT RAIN  55  50  82 SW9G20    29.89R
JUNEAU         MOSUNNY   59  51  76 S16G22    29.90F
$$

LSZ147-162-222100-
LAKE SUPERIOR

STATION/POSITION TIME  TEMP    WIND        PRES    WAVE
                       AIR SEA DIR/SP/G            HT/PER
                 (UTC) (F)     (DEG/KT/KT) (MB)    (FT/S)
W MID LAKE BUOY  1850   42 37  250/ 16/ 17 1007.7F   2/ 4
DEVILS ISLAND    1900   46     240/ 19/ 20 1008.2R
SAXON HARBOR     1930   52     220/  4/  8 1008.5R
$$

LMZ867-665-643>646-222100-
LAKE MICHIGAN

STATION/POSITION TIME  TEMP    WIND        PRES    WAVE
                       AIR SEA DIR/SP/G            HT/PER
                 (UTC) (F)     (DEG/KT/KT) (MB)    (FT/S)
CHAMBERS ISLAND  1940   57     170/  7/ 16 1009.5S
N MID LAKE BUOY  1950   42 39  190/ 17/ 19 1011.2F   3/ 5
NORTHPORT PIER   1940   62     210/  7/ 16 1009.8S
KEWAUNEE LAKESHO 1948          190/ 12/ 17 1010.1F
SHEBOYGAN LAKESH 2000   65     230/ 21/ 25 1010.5F
PORT WASHINGTON  1930   65     240/  9/ 19 1012.5F
ATWATER BUOY     1909   59     230/ 16/ 17 1012.8F
MILWAUKEE LAKESH 1950   62     240/ 15/ 17   N/A
S MID LAKE BUOY  1850   49 45  170/ 12/ 14 1014.5F   1/ 3
KENOSHA   LAKESH 2000   68     230/ 14/ 21 1012.9
$$

TC  - TEMPERATURE IN CELSIUS
VSB - VISIBILITY IN STATUTE MILES
WCI - WIND CHILL INDEX
HX  - HEAT INDEX





USA.gov is the U.S. government's official web portal to all federal, state and local government web resources and services.